AirNav   Air Wisconsin Up To $57,000 Bonus
 
 1521 users online  

9K8 Kingman Airport/Clyde Cessna Field
Kingman, Kansas, USA

GOING TO KINGMAN?


FAA INFORMATION EFFECTIVE 26 JANUARY 2023

Location

FAA Identifier: 9K8
Lat/Long: 37-40-08.4580N 098-07-26.0101W
37-40.140967N 098-07.433502W
37.6690161,-98.1238917
(estimated)
Elevation: 1606.6 ft. / 489.7 m (surveyed)
Variation: 06E (2005)
From city: 1 mile NW of KINGMAN, KS
Time zone: UTC -6 (UTC -5 during Daylight Saving Time)
Zip code: 67068

Airport Operations

Airport use: Open to the public
Activation date: 08/1945
Control tower: no
ARTCC: KANSAS CITY CENTER
FSS: WICHITA FLIGHT SERVICE STATION
NOTAMs facility: ICT (NOTAM-D service available)
Attendance: MON-FRI 0830-2000
Wind indicator: lighted
Segmented circle: yes
Lights: ACTVT REIL RWY 18 & 36; PAPI RWY 18 & 36; MIRL 18/36 - CTAF.
Beacon: white-green (lighted land airport)
Operates sunset to sunrise.

Airport Communications

CTAF/UNICOM: 122.8
WX AWOS-3PT: 119.325 (620-532-1272)
WICHITA APPROACH: 125.5
WICHITA DEPARTURE: 125.5

Nearby radio navigation aids

VOR radial/distance  VOR name  Freq  Var
HUTr201/21.6HUTCHINSON VOR/DME116.8004E
ICTr253/26.0WICHITA VORTAC113.8007E

Airport Services

Fuel available: 100LL
100LL:SELF SVC FUEL AVBL WITH CREDIT CARD.
Parking: hangars and tiedowns
Airframe service: MAJOR
Powerplant service: MAJOR
Bottled oxygen: NONE
Bulk oxygen: NONE

Runway Information

Runway 18/36

Dimensions: 4300 x 75 ft. / 1311 x 23 m
Surface: concrete, in fair condition
Weight bearing capacity: 
PCN 11 /R/C/X/U
Single wheel: 30.0
Double wheel: 30.0
Runway edge lights: medium intensity
RUNWAY 18  RUNWAY 36
Latitude: 37-40.435347N37-39.734007N
Longitude: 098-07.279277W098-07.406053W
Elevation: 1598.7 ft.1596.5 ft.
Traffic pattern: rightleft
Runway heading: 182 magnetic, 188 true002 magnetic, 008 true
Declared distances: TORA:4300 TODA:4300 ASDA:4300 LDA:4300TORA:4300 TODA:4300 ASDA:4300 LDA:4300
Markings: nonprecision, in good conditionnonprecision, in good condition
Visual slope indicator: 2-light PAPI on left (3.00 degrees glide path)2-light PAPI on left (3.00 degrees glide path)
Runway end identifier lights: yesyes
Touchdown point: yes, no lightsyes, no lights
Obstructions: 15 ft. road, 550 ft. from runway, 24:1 slope to clear45 ft. trees, 1290 ft. from runway, 24:1 slope to clear

Runway 11/29

Dimensions: 3400 x 60 ft. / 1036 x 18 m
Surface: concrete, in good condition
Weight bearing capacity: 
PCN 11 /R/C/X/U
Single wheel: 30.0
Double wheel: 30.0
RUNWAY 11  RUNWAY 29
Latitude: 37-40.336687N37-40.087655N
Longitude: 098-07.864078W098-07.232797W
Elevation: 1606.6 ft.1592.5 ft.
Traffic pattern: leftright
Runway heading: 110 magnetic, 116 true290 magnetic, 296 true
Declared distances: TORA:3400 TODA:3400 ASDA:3400 LDA:3400TORA:3400 TODA:3400 ASDA:3400 LDA:3400
Markings: basic, in good conditionbasic, in good condition
Touchdown point: yes, no lightsyes, no lights
Obstructions: 29 ft. trees, 1350 ft. from runway, 39:1 slope to clear30 ft. pline, marked, 978 ft. from runway, 25:1 slope to clear
POWER LINE MARKED WITH ORANGE BALLS.

Airport Ownership and Management from official FAA records

Ownership: Publicly-owned
Owner: CITY OF KINGMAN
324 NORTH MAIN
KINGMAN, KS 67068
Phone 620-532-3111
Manager: EZRA OLSON
PO BOX 262
KINGMAN, KS 67068
Phone (620) 532-1279

Airport Operational Statistics

Aircraft based on the field: 22
Single engine airplanes: 20
Multi engine airplanes: 2
    
Aircraft operations: avg 26/day *
60% local general aviation
40% transient general aviation
* for 12-month period ending 30 April 2021

Additional Remarks

FOR CD CTC WICHITA APCH AT 316-350-1520.

Instrument Procedures

NOTE: All procedures below are presented as PDF files. If you need a reader for these files, you should download the free Adobe Reader.

NOT FOR NAVIGATION. Please procure official charts for flight.
FAA instrument procedures published for use from 26 January 2023 at 0901Z to 23 February 2023 at 0900z.

 
IAPs - Instrument Approach Procedures
RNAV (GPS) RWY 18   download
RNAV (GPS) RWY 36   download
NOTE: Special Take-Off Minimums/Departure Procedures apply   download (351KB)

Other nearby airports with instrument procedures:

8K2 - Harper Municipal Airport (24 nm S)
KHUT - Hutchinson Regional Airport (27 nm NE)
KPTT - Pratt Regional Airport (30 nm W)
KANY - Anthony Municipal Airport (31 nm S)
KICT - Wichita Dwight D Eisenhower National Airport (33 nm E)
 
Loc | Ops | Rwys | IFR | FBO | Links
Com | Nav | Svcs | Stats | Notes
Area around 9K8 (Kingman Airport/Clyde Cessna Field)
 
Road maps at: MapQuest Bing Google
 
Aerial photo
WARNING: Photo may not be current or correct
Aerial photo of 9K8 (Kingman Airport/Clyde Cessna Field)
Do you have a better or more recent aerial photo of Kingman Airport/Clyde Cessna Field that you would like to share? If so, please send us your photo.

 
Sectional chart

 
Airport distance calculator
Flying to Kingman Airport/Clyde Cessna Field? Find the distance to fly.

From to 9K8

Sunrise and sunset
Times for 30-Jan-2023
 Local
(UTC-6)
 Zulu
(UTC)
Morning civil twilight07:1113:11
Sunrise07:3913:39
Sunset17:5323:53
Evening civil twilight18:2100:21

Current date and time
Zulu (UTC)  30-Jan-2023 22:23:23
Local (UTC-6)  30-Jan-2023 16:23:23
 
METAR
KHUT 
27nm NE 
302152Z 02012G16KT 10SM SCT032 M07/M15 A3036 RMK AO2 SLP302 T10721150
KPTT 
30nm W 
302155Z AUTO 03009KT 10SM BKN027 OVC044 M08/M15 A3033 RMK AO2 T10761146
KP28 
31nm SW 
302156Z AUTO 03009KT M07/M14 A3034 RMK AO1 SLP300 T10671144 $
KICT 
33nm E 
302153Z 02010KT 10SM OVC041 M07/M15 A3037 RMK AO2 SLP304 T10671150
KEGT 
41nm SE 
302155Z AUTO 04010KT 10SM OVC037 M06/M16 A3037 RMK AO2 T10651156
KIAB 
41nm E 
302155Z AUTO 05012KT 10SM OVC035 M07/M15 A3034 RMK AO2 SLP301 T10711155
KBEC 
43nm E 
302155Z AUTO 03011KT 10SM OVC041 M07/M15 A3036 RMK AO2 T10711153
KAAO 
43nm E 
302154Z AUTO 01012KT 10SM OVC041 M07/M15 A3036 RMK AO2 SLP308 T10721150
KMPR 
46nm NE 
302155Z AUTO 02013G17KT 320V030 10SM BKN034 M07/M15 A3037 RMK AO2 T10681154
KEWK 
46nm NE 
302156Z AUTO 03008KT 9SM FEW032 SCT041 OVC050 M06/M14 A3037 RMK AO2 SNE08B26E51 SLP306 P0000 T10611139 FZRANO
TAF
KHUT 
27nm NE 
301732Z 3018/3118 02009KT P6SM VCSH BKN050 FM310000 36005KT P6SM SCT250
KICT 
33nm E 
301732Z 3018/3118 05011KT P6SM VCSH OVC040 FM302100 02010KT P6SM VCSH OVC060 FM310000 03009KT P6SM BKN100
NOTAMs
Click for the latest NOTAMs
NOTAMs are issued by the DoD/FAA and will open in a separate window not controlled by AirNav.

 

 
 

FBO, Fuel Providers, and Aircraft Ground Support

  
 Business Name 
 
 Contact 
 
 Services / Description 
 
Fuel Prices
 
Comments
  
City of Kingman 620-532-1279
[web site]
[email]
Airport management, Aviation fuel, Aircraft parking (ramp or tiedown), Hangar leasing / sales, Passenger terminal and lounge, Courtesy transportation, ...

More info about City of Kingman
independent
100LL
AS $6.85 
 Updated 29-Dec-2022
 
   1 read write
AS=Assisted/Self Service
Update Fuel Prices
 

Aviation Businesses, Services, and Facilities

  
 Business Name 
 
 Contact 
 
 Services / Description 
 
Distance
 
Comments
  
Prairie Wind Aviation 620-755-4440
[email]
Hangars, Aircraft maintenance, Avionics sales and service, Aircraft modifications, Aircraft cleaning / washing / detailing, Aircraft sales / leasing / brokerage, Aircraft management, ...

More info about Prairie Wind Aviation
on airport  
   write
 

Would you like to see your business listed on this page?

 If your business provides an interesting product or service to pilots, flight crews, aircraft, or users of the Kingman Airport/Clyde Cessna Field, you should consider listing it here.  To start the listing process, click on the button below
 
Add a business
 

Other Pages about Kingman Airport/Clyde Cessna Field

www.cityofkingman.com/airport
 
Update a link
 
Copyright © AirNav, LLC. All rights reserved. Privacy Policy  Contact